N8AAU Weather Reports


time (UTC)temp
C
wind
direction
speed
KPH
gust
KPH
rain 1hr
cm
rain 24hr
cm
rain mn
cm
humidity
%
barometer
mb
20260508214005 17 193 0.0 0.0 0.00 0.15 0.15 45 1006.2
20260508213504 17 221 0.0 0.0 0.00 0.15 0.15 44 1006.3
20260508213005 17 169 0.0 0.0 0.00 0.15 0.15 42 1006.3
20260508212505 17 208 0.0 9.7 0.00 0.15 0.15 43 1006.3
20260508212006 17 239 0.0 9.7 0.00 0.15 0.15 43 1006.3
20260508210504 17 247 0.0 9.7 0.00 0.15 0.15 42 1006.4
20260508204505 17 183 0.0 6.4 0.00 0.15 0.15 37 1006.5
20260508204005 17 5 0.0 6.4 0.00 0.15 0.15 39 1006.6
20260508203504 17 355 0.0 0.0 0.00 0.15 0.15 39 1006.6
20260508202005 17 221 4.8 22.5 0.00 0.15 0.15 36 1007.1
20260508201505 17 183 1.6 22.5 0.00 0.15 0.15 37 1007.2
20260508201004 17 208 0.0 17.7 0.00 0.15 0.15 36 1007.3
20260508200504 17 219 0.0 4.8 0.00 0.15 0.15 36 1007.2
20260508195505 17 200 3.2 25.7 0.00 0.15 0.15 36 1007.5
20260508195005 17 225 1.6 16.1 0.00 0.15 0.15 35 1007.5
20260508194505 17 207 0.0 4.8 0.00 0.15 0.15 34 1007.7
20260508194005 17 239 1.6 24.1 0.00 0.15 0.15 36 1007.7
20260508193504 17 171 1.6 24.1 0.00 0.15 0.15 33 1007.8
20260508193005 17 216 3.2 24.1 0.00 0.15 0.15 35 1007.8
20260508192005 17 225 0.0 14.5 0.00 0.15 0.15 32 1008.1
20260508191504 17 263 1.6 12.9 0.00 0.15 0.15 32 1008.1
20260508191004 17 227 1.6 20.9 0.00 0.15 0.15 31 1008.0
20260508190505 17 237 1.6 20.9 0.00 0.15 0.15 31 1008.1
20260508185504 17 291 0.0 3.2 0.00 0.15 0.15 33 1008.3
20260508184505 17 300 0.0 4.8 0.00 0.15 0.15 33 1008.5
20260508184005 17 229 0.0 6.4 0.00 0.15 0.15 33 1008.4
20260508183006 17 231 0.0 1.6 0.00 0.15 0.15 34 1008.5
20260508182504 17 323 0.0 1.6 0.00 0.15 0.15 34 1008.6
20260508181505 16 191 0.0 0.0 0.00 0.15 0.15 35 1008.9
20260508181004 16 35 0.0 3.2 0.00 0.15 0.15 36 1008.9
20260508180505 16 234 0.0 6.4 0.00 0.15 0.15 35 1009.0
20260508180006 16 155 0.0 6.4 0.00 0.15 0.15 37 1009.0
20260508175004 16 252 0.0 17.7 0.00 0.15 0.15 38 1009.2
20260508174505 15 174 0.0 4.8 0.00 0.15 0.15 39 1009.3
20260508174004 15 248 0.0 6.4 0.00 0.15 0.15 40 1009.5
20260508173504 15 233 1.6 9.7 0.00 0.15 0.15 38 1009.5
20260508173005 15 210 1.6 17.7 0.00 0.15 0.15 37 1009.7
20260508171505 15 215 0.0 11.3 0.00 0.15 0.15 37 1009.8
20260508171004 15 216 0.0 11.3 0.00 0.15 0.15 39 1009.8
20260508170504 15 257 1.6 11.3 0.00 0.15 0.15 37 1009.9
20260508170006 15 186 3.2 24.1 0.00 0.15 0.15 39 1010.0
20260508165504 15 201 1.6 24.1 0.00 0.15 0.15 39 1010.1
20260508164004 15 17 0.0 0.0 0.00 0.15 0.15 40 1010.3
20260508163005 14 165 0.0 0.0 0.00 0.15 0.15 42 1010.7
20260508162504 14 196 0.0 0.0 0.00 0.15 0.15 43 1010.7
20260508162004 14 212 0.0 0.0 0.00 0.15 0.15 43 1010.7
20260508161004 14 215 0.0 9.7 0.00 0.15 0.15 43 1010.6
20260508160005 14 264 0.0 1.6 0.00 0.15 0.15 43 1010.7
20260508155504 13 271 0.0 1.6 0.00 0.15 0.15 44 1010.8
20260508154505 13 290 0.0 9.7 0.00 0.15 0.15 43 1010.8
20260508154004 13 261 0.0 6.4 0.00 0.15 0.15 44 1010.9
20260508153005 13 221 0.0 16.1 0.00 0.15 0.15 44 1010.8
20260508152504 13 327 0.0 0.0 0.00 0.15 0.15 49 1010.8
20260508152005 13 18 0.0 0.0 0.00 0.15 0.15 48 1010.9
20260508151505 12 298 0.0 6.4 0.00 0.15 0.15 48 1011.0
20260508151004 12 232 0.0 6.4 0.00 0.15 0.15 52 1011.0
20260508150504 12 42 0.0 0.0 0.00 0.15 0.15 51 1011.0
20260508150005 12 202 0.0 0.0 0.00 0.15 0.15 52 1011.1
20260508145504 12 70 0.0 0.0 0.00 0.15 0.15 52 1011.1
20260508145004 12 28 0.0 0.0 0.00 0.15 0.15 51 1011.0
20260508144004 12 38 0.0 1.6 0.00 0.15 0.15 54 1011.3
20260508143504 11 327 0.0 1.6 0.00 0.15 0.15 57 1011.3
20260508143005 11 196 0.0 0.0 0.00 0.15 0.15 58 1011.3
20260508142504 11 142 0.0 0.0 0.00 0.15 0.15 64 1011.4
20260508142005 11 360 0.0 1.6 0.00 0.15 0.15 64 1011.4
20260508141504 11 232 0.0 0.0 0.00 0.15 0.15 65 1011.4
20260508140006 10 217 0.0 0.0 0.00 0.15 0.15 69 1011.5
20260508135004 10 217 0.0 3.2 0.00 0.15 0.15 70 1011.6
20260508134004 9 213 0.0 0.0 0.00 0.15 0.15 76 1011.6
20260508133504 8 216 0.0 0.0 0.00 0.15 0.15 77 1011.7
20260508133005 8 211 0.0 0.0 0.00 0.15 0.15 78 1011.6
20260508132504 8 180 0.0 0.0 0.00 0.15 0.15 80 1011.7
20260508132004 8 195 0.0 0.0 0.00 0.15 0.15 79 1011.7
20260508131504 7 195 0.0 0.0 0.00 0.15 0.15 81 1011.6
20260508131004 7 226 0.0 0.0 0.00 0.15 0.15 83 1011.7
20260508130504 7 229 0.0 0.0 0.00 0.15 0.15 84 1011.7
20260508130005 6 229 0.0 0.0 0.00 0.15 0.15 85 1011.7
20260508125504 6 229 0.0 0.0 0.00 0.15 0.15 86 1011.6
20260508125004 6 229 0.0 0.0 0.00 0.15 0.15 88 1011.7
20260508124504 6 229 0.0 0.0 0.00 0.15 0.15 89 1011.7
20260508123004 5 229 0.0 0.0 0.00 0.15 0.15 91 1011.7
20260508122504 5 229 0.0 0.0 0.00 0.15 0.15 91 1011.7
20260508122005 5 229 0.0 0.0 0.00 0.15 0.15 91 1011.7
20260508121004 5 229 0.0 0.0 0.00 0.15 0.15 91 1011.5
20260508120504 5 229 0.0 0.0 0.00 0.15 0.15 91 1011.5
20260508115504 4 229 0.0 0.0 0.00 0.15 0.15 91 1011.4
20260508115004 4 229 0.0 0.0 0.00 0.15 0.15 91 1011.3
20260508114505 4 229 0.0 0.0 0.00 0.15 0.15 91 1011.3
20260508114005 4 229 0.0 0.0 0.00 0.15 0.15 91 1011.2
20260508113504 3 229 0.0 0.0 0.00 0.15 0.15 91 1011.1
20260508113005 3 229 0.0 0.0 0.03 0.15 0.15 90 1011.1
20260508112504 3 229 0.0 0.0 0.03 0.15 0.15 90 1011.1
20260508112005 3 229 0.0 0.0 0.03 0.15 0.15 90 1011.0
20260508110504 3 229 0.0 0.0 0.03 0.15 0.15 89 1010.9
20260508110005 3 229 0.0 0.0 0.03 0.15 0.15 89 1010.9
20260508105504 3 229 0.0 0.0 0.03 0.15 0.15 89 1010.9
20260508105005 3 229 0.0 0.0 0.03 0.15 0.15 89 1010.9
20260508104504 3 229 0.0 0.0 0.03 0.15 0.15 89 1010.9
20260508103504 3 229 0.0 0.0 0.03 0.15 0.15 89 1010.9
20260508103004 3 229 0.0 0.0 0.00 0.13 0.13 89 1010.9
20260508102504 3 229 0.0 0.0 0.00 0.13 0.13 89 1010.9
20260508101505 3 229 0.0 0.0 0.00 0.13 0.13 89 1010.9
20260508101004 3 229 0.0 0.0 0.00 0.13 0.13 89 1010.9
20260508100504 4 229 0.0 0.0 0.00 0.13 0.13 89 1010.9
20260508100005 4 229 0.0 0.0 0.00 0.13 0.13 89 1010.9
20260508095504 4 229 0.0 0.0 0.00 0.13 0.13 89 1010.8
20260508094505 4 229 0.0 0.0 0.00 0.13 0.13 89 1011.0
20260508094003 4 229 0.0 0.0 0.00 0.13 0.13 88 1010.9
20260508093459 4 229 0.0 0.0 0.00 0.13 0.13 88 1011.0
20260508093004 5 229 0.0 0.0 0.00 0.13 0.13 89 1011.0
20260508092458 5 229 0.0 0.0 0.00 0.13 0.13 89 1011.0
20260508091959 5 229 0.0 0.0 0.00 0.13 0.13 89 1011.0
20260508091459 5 229 0.0 0.0 0.00 0.13 0.13 89 1010.9
20260508090959 5 229 0.0 0.0 0.00 0.13 0.13 89 1010.9
20260508090459 5 229 0.0 0.0 0.00 0.13 0.13 89 1010.9
20260508090005 5 229 0.0 0.0 0.00 0.13 0.13 89 1011.0
20260508085500 5 229 0.0 0.0 0.00 0.13 0.13 89 1011.0
20260508085003 5 229 0.0 0.0 0.00 0.13 0.13 89 1011.0
20260508084504 5 229 0.0 0.0 0.00 0.13 0.13 89 1011.0
20260508084000 5 229 0.0 0.0 0.00 0.13 0.13 89 1010.9
20260508083500 5 238 0.0 0.0 0.00 0.13 0.13 89 1010.9
20260508083004 5 238 0.0 0.0 0.00 0.13 0.13 89 1011.0
20260508082504 5 238 0.0 0.0 0.00 0.13 0.13 89 1010.9
20260508082000 5 238 0.0 0.0 0.00 0.13 0.13 89 1010.9
20260508081500 5 238 0.0 0.0 0.00 0.13 0.13 89 1010.9
20260508081004 5 238 0.0 0.0 0.00 0.13 0.13 89 1011.0
20260508080504 5 238 0.0 0.0 0.00 0.13 0.13 89 1011.0
20260508080004 5 238 0.0 0.0 0.00 0.13 0.13 89 1011.1
20260508075459 6 238 0.0 0.0 0.00 0.13 0.13 89 1011.1
20260508074958 6 238 0.0 0.0 0.00 0.13 0.13 89 1011.1
20260508074500 6 238 0.0 0.0 0.00 0.13 0.13 89 1011.0
20260508073958 6 238 0.0 0.0 0.00 0.13 0.13 89 1011.0
20260508073459 6 238 0.0 0.0 0.00 0.13 0.13 88 1011.1
20260508072959 6 238 0.0 0.0 0.00 0.13 0.13 88 1011.0
20260508072504 6 238 0.0 0.0 0.00 0.13 0.13 88 1011.1
20260508071959 6 238 0.0 0.0 0.00 0.13 0.13 88 1011.1
20260508071504 6 238 0.0 0.0 0.00 0.13 0.13 88 1011.0
20260508070959 6 238 0.0 0.0 0.00 0.13 0.13 88 1011.1
20260508070459 6 238 0.0 0.0 0.00 0.13 0.13 88 1011.1
20260508070005 6 238 0.0 0.0 0.00 0.13 0.13 88 1011.1
20260508065459 6 238 0.0 0.0 0.00 0.13 0.13 88 1011.0
20260508064958 6 238 0.0 0.0 0.00 0.13 0.13 87 1011.0
20260508064500 6 238 0.0 0.0 0.00 0.13 0.13 87 1011.0
20260508063959 6 238 0.0 0.0 0.00 0.13 0.13 87 1011.1
20260508062959 6 238 0.0 0.0 0.00 0.13 0.13 86 1011.0
20260508062500 6 238 0.0 0.0 0.00 0.13 0.13 86 1011.0
20260508061959 6 238 0.0 0.0 0.00 0.13 0.13 86 1011.0
20260508060958 6 238 0.0 0.0 0.00 0.13 0.13 85 1011.0
20260508060458 6 238 0.0 0.0 0.00 0.13 0.13 85 1011.1
20260508060000 6 238 0.0 0.0 0.00 0.13 0.13 85 1011.1
20260508055500 6 238 0.0 0.0 0.00 0.13 0.13 85 1011.3
20260508054459 6 238 0.0 0.0 0.00 0.13 0.13 84 1011.1
20260508053959 6 238 0.0 0.0 0.03 0.13 0.13 83 1011.1
20260508053459 6 238 0.0 0.0 0.03 0.13 0.13 83 1011.1
20260508053004 7 238 0.0 0.0 0.03 0.13 0.13 83 1011.2
20260508052458 7 238 0.0 0.0 0.08 0.13 0.13 83 1011.2
20260508051459 7 238 0.0 0.0 0.13 0.13 0.13 82 1011.2
20260508050958 7 238 0.0 0.0 0.13 0.13 0.13 81 1011.2
20260508050459 7 238 0.0 0.0 0.13 0.13 0.13 81 1011.3
20260508045959 7 238 0.0 0.0 0.13 0.13 0.13 80 1011.4
20260508045459 7 238 0.0 0.0 0.13 0.13 0.13 79 1011.4
20260508044959 7 238 0.0 0.0 0.13 0.13 0.13 79 1011.4
20260508043959 8 238 0.0 0.0 0.10 0.10 0.10 76 1011.6
20260508043459 8 238 0.0 0.0 0.10 0.10 0.10 74 1011.7
20260508043000 9 275 1.6 8.0 0.08 0.08 0.08 72 1011.9
20260508042459 9 297 1.6 12.9 0.03 0.03 0.03 69 1011.8
20260508041959 10 294 0.0 12.9 0.00 0.00 0.00 63 1011.6
20260508041500 10 309 0.0 0.0 0.00 0.00 0.00 57 1011.4
20260508041005 10 218 0.0 0.0 0.00 0.00 0.00 56 1011.2
20260508040504 10 218 0.0 0.0 0.00 0.00 0.00 56 1011.2
20260508040005 10 218 0.0 0.0 0.00 0.00 0.00 55 1011.0
20260508035505 10 216 0.0 6.4 0.00 0.00 0.00 55 1010.9
20260508035005 10 232 0.0 6.4 0.00 0.00 0.00 54 1011.0
20260508034505 10 219 0.0 0.0 0.00 0.00 0.00 54 1010.9
20260508034004 10 198 0.0 0.0 0.00 0.00 0.00 54 1011.0
20260508033505 10 223 0.0 0.0 0.00 0.00 0.00 53 1011.0
20260508033005 10 205 0.0 0.0 0.00 0.00 0.00 53 1011.0
20260508032004 10 199 0.0 0.0 0.00 0.00 0.00 51 1011.1
20260508031505 10 200 0.0 0.0 0.00 0.00 0.00 51 1011.3
20260508031004 10 199 0.0 0.0 0.00 0.00 0.00 51 1011.3
20260508030005 10 203 0.0 0.0 0.00 0.00 0.00 51 1011.4
20260508025505 10 221 0.0 0.0 0.00 0.00 0.00 51 1011.4
20260508025004 10 257 0.0 0.0 0.00 0.00 0.00 50 1011.4
20260508024004 10 271 0.0 0.0 0.00 0.00 0.00 50 1011.2
20260508023504 10 271 0.0 0.0 0.00 0.00 0.00 50 1011.1
20260508022505 10 273 0.0 0.0 0.00 0.00 0.00 50 1011.1
20260508022004 10 273 0.0 0.0 0.00 0.00 0.00 50 1011.1
20260508021505 10 273 0.0 0.0 0.00 0.00 0.00 50 1011.1
20260508021004 10 273 0.0 0.0 0.00 0.00 0.00 50 1011.1
20260508020005 10 271 0.0 0.0 0.00 0.00 0.00 49 1011.0
20260508015505 10 271 0.0 0.0 0.00 0.00 0.00 50 1011.1
20260508015004 10 271 0.0 0.0 0.00 0.00 0.00 49 1011.1
20260508014506 10 271 0.0 0.0 0.00 0.00 0.00 49 1011.0
20260508013504 10 271 0.0 0.0 0.00 0.00 0.00 49 1011.0
20260508013005 10 271 0.0 0.0 0.00 0.00 0.00 48 1010.9
20260508012504 10 270 0.0 0.0 0.00 0.00 0.00 49 1010.8
20260508012004 10 294 0.0 0.0 0.00 0.00 0.00 48 1010.9
20260508011505 10 252 0.0 0.0 0.00 0.00 0.00 48 1010.9
20260508011004 11 248 0.0 3.2 0.00 0.00 0.00 47 1010.9
20260508010005 11 272 0.0 11.3 0.00 0.00 0.00 44 1010.9
20260508005504 11 219 0.0 9.7 0.00 0.00 0.00 42 1010.8
20260508005005 11 268 0.0 0.0 0.00 0.00 0.00 42 1010.6
20260508004504 11 290 0.0 3.2 0.00 0.00 0.00 42 1010.4
20260508004005 11 265 0.0 3.2 0.00 0.00 0.00 42 1010.3
20260508003504 11 271 0.0 0.0 0.00 0.00 0.00 42 1010.2
20260508003005 11 254 0.0 0.0 0.00 0.00 0.00 41 1010.3
20260508002504 11 247 0.0 9.7 0.00 0.00 0.00 41 1010.3
20260508002005 11 297 0.0 8.0 0.00 0.00 0.00 41 1010.3
20260508001504 11 288 0.0 8.0 0.00 0.00 0.00 42 1010.3
20260508001004 11 231 0.0 0.0 0.00 0.00 0.00 40 1010.3
20260508000504 11 294 0.0 8.0 0.00 0.00 0.00 40 1010.2
20260508000006 12 278 0.0 16.1 0.00 0.00 0.00 40 1010.2
20260507235505 12 246 0.0 16.1 0.00 0.00 0.00 40 1010.2
20260507235004 12 268 0.0 3.2 0.00 0.00 0.00 39 1010.2
20260507234505 12 229 0.0 0.0 0.00 0.00 0.00 40 1010.2
20260507234004 12 232 0.0 14.5 0.00 0.00 0.00 40 1010.3
20260507233504 12 240 0.0 14.5 0.00 0.00 0.00 39 1010.3
20260507233005 12 259 0.0 1.6 0.00 0.00 0.00 39 1010.2
20260507232504 12 218 0.0 6.4 0.00 0.00 0.00 39 1010.2
20260507232004 12 233 0.0 9.7 0.00 0.00 0.00 38 1010.2
20260507231505 12 246 0.0 9.7 0.00 0.00 0.00 38 1010.2
20260507230504 12 265 0.0 14.5 0.00 0.00 0.00 38 1010.3
20260507230006 12 273 1.6 14.5 0.00 0.00 0.00 39 1010.3
20260507225504 12 279 0.0 14.5 0.00 0.00 0.00 38 1010.3
20260507225005 12 294 0.0 11.3 0.00 0.00 0.00 39 1010.4
20260507224505 12 250 1.6 11.3 0.00 0.00 0.00 38 1010.4
20260507224004 12 295 1.6 17.7 0.00 0.00 0.00 37 1010.5
20260507223504 12 281 1.6 19.3 0.00 0.00 0.00 38 1010.5
20260507223005 12 256 1.6 16.1 0.00 0.00 0.00 37 1010.5
20260507222504 12 284 1.6 16.1 0.00 0.00 0.00 38 1010.5
20260507221505 12 274 0.0 8.0 0.00 0.00 0.00 38 1010.6
20260507221005 12 306 0.0 8.0 0.00 0.00 0.00 38 1010.5
20260507220504 12 304 0.0 0.0 0.00 0.00 0.00 38 1010.5
20260507220005 12 300 0.0 6.4 0.00 0.00 0.00 38 1010.5
20260507215504 12 284 0.0 9.7 0.00 0.00 0.00 37 1010.5
20260507215005 13 360 0.0 9.7 0.00 0.00 0.00 38 1010.4